Wind_Speed
29 29 27 25 24 24 22 21 20 20 17 15 14 12 10 9 8 8 7 6 6 6 5 5 6 5 5 6 6 6 6 6 6 5 5 6 7 7 7 7 7 6 6 6
30 29 28 28 27 26 24 23 23 22 20 18 16 14 12 12 11 10 9 9 9 8 7 7 6 6 7 7 7 6 6 5 6 5 5 6 7 8 8 8 8 8 8 7
31 30 30 29 28 27 26 25 24 23 21 20 18 16 15 14 13 12 11 11 10 9 8 8 8 8 8 8 8 8 6 5 6 6 6 7 7 8 9 9 9 10 9 9
34 32 31 30 29 28 28 27 26 25 23 22 20 17 17 15 13 13 12 12 11 11 10 10 10 9 10 10 10 8 6 6 6 7 8 8 8 8 9 10 10 10 10 10
34 32 32 31 30 29 30 28 27 26 25 24 22 19 18 16 14 13 13 12 12 12 12 12 11 10 11 11 10 9 7 7 8 9 10 9 9 9 9 10 11 11 11 11
36 34 33 33 32 32 31 29 28 27 26 26 23 21 19 17 15 14 14 14 13 13 13 13 12 12 12 11 11 10 9 9 10 10 10 10 10 10 11 11 11 11 11 12
36 35 35 34 34 34 32 30 28 28 27 26 24 22 20 18 16 15 15 14 14 14 14 14 13 13 12 11 12 12 11 11 11 11 11 12 12 12 12 11 11 11 12 12
35 35 34 34 34 33 31 31 29 26 24 24 25 23 21 18 17 16 16 15 15 15 14 14 14 13 13 12 12 12 12 12 12 12 12 11 11 12 11 11 11 12 12 12
34 34 34 33 33 33 32 31 30 28 26 23 24 22 20 19 17 17 17 16 16 15 15 15 15 14 13 13 13 13 13 13 12 11 11 11 11 11 11 11 11 12 12 13
34 34 33 33 33 33 32 31 31 29 27 24 23 22 21 19 18 17 17 16 16 16 16 16 16 15 14 14 14 14 14 14 13 13 11 11 11 11 11 12 12 13 14 14
33 33 33 33 33 32 31 31 31 29 28 23 19 20 21 19 18 17 16 16 16 16 16 16 15 15 15 14 14 14 14 14 14 13 12 12 12 12 13 13 14 14 15 15
32 32 32 32 32 32 31 30 29 29 28 25 20 20 21 19 18 17 17 16 16 16 16 16 16 16 16 16 16 16 15 14 14 14 14 13 13 13 13 14 15 15 16 16
32 32 32 32 33 32 32 31 30 29 28 26 22 21 22 19 18 18 17 17 17 17 17 17 17 17 17 17 17 16 15 15 15 15 15 15 15 15 15 15 16 16 16 17
31 31 30 28 29 31 30 30 29 29 28 26 24 22 23 20 19 19 18 18 18 17 18 18 18 17 17 17 17 16 16 16 16 16 16 17 16 16 16 17 17 17 17 18
30 30 31 31 31 30 29 29 29 28 27 25 24 24 24 22 21 21 20 20 20 18 18 18 17 17 16 17 17 17 17 16 16 16 17 18 18 17 18 17 17 17 18 18
29 30 30 30 30 29 29 29 29 28 27 26 25 24 24 22 21 21 20 20 20 19 18 18 17 17 17 17 17 17 16 16 17 18 18 18 17 17 17 17 18 19 19 19
28 28 28 28 29 29 29 29 29 28 26 25 25 24 23 22 21 21 21 20 20 19 19 18 17 16 16 16 16 17 17 17 17 18 17 17 17 16 16 17 17 18 18 19
28 28 27 27 29 27 28 28 27 27 26 25 24 24 23 22 21 21 21 21 20 19 19 18 18 17 17 16 16 16 17 18 18 18 17 17 17 16 17 17 17 18 19 19
27 28 28 27 27 28 28 27 26 26 25 25 24 23 22 22 22 22 22 21 20 20 20 20 19 18 17 17 16 15 16 17 18 18 18 18 18 18 19 19 19 19 19 20
27 28 28 28 26 26 26 26 25 25 25 24 24 23 22 22 22 22 22 22 21 21 21 20 20 19 18 17 16 16 16 17 18 18 19 19 19 19 19 20 19 19 19 20
27 28 28 27 26 26 26 25 24 25 25 24 24 23 23 23 23 23 23 23 22 21 21 20 20 20 19 18 18 17 17 18 18 19 19 20 20 20 19 19 19 20 20 21
28 28 29 28 26 26 24 24 25 24 24 23 23 23 24 25 24 24 24 23 23 22 21 21 21 20 20 19 19 19 19 19 20 20 20 20 20 20 20 19 20 20 20 21
29 29 29 29 28 26 24 24 24 24 24 24 24 24 24 25 25 25 24 24 23 23 23 22 22 21 20 21 21 20 20 20 20 20 20 20 20 20 20 20 20 20 20 21
29 29 29 29 28 26 25 25 25 24 24 24 24 24 24 24 25 25 25 24 23 23 23 23 23 22 22 22 22 22 22 21 20 19 19 19 19 19 19 19 19 20 20 20
30 29 29 28 27 27 26 26 25 25 25 25 25 25 25 25 25 25 25 25 25 24 23 23 22 22 22 23 23 23 23 22 21 20 19 19 19 19 20 20 20 21 21 21
30 30 30 29 28 27 27 26 26 26 25 25 25 26 25 25 25 25 25 26 26 25 24 23 22 22 22 22 23 23 23 22 22 21 21 21 21 21 21 22 22 22 22 23
Wind_Direction
225 226 227 227 225 224 225 227 231 236 237 240 245 249 248 249 250 255 262 271 279 289 295 298 306 314 318 326 328 325 319 315 313 307 275 254 250 247 249 251 256 255 255 262
225 225 225 225 225 225 224 226 231 236 237 240 246 250 251 252 253 255 262 267 270 278 287 291 296 300 302 311 320 319 313 306 309 310 288 264 258 257 259 260 263 264 259 260
226 225 226 226 225 225 225 227 232 237 239 241 245 250 252 252 253 254 258 263 269 273 278 285 289 290 297 303 311 314 313 293 296 298 286 273 268 264 267 260 262 260 261 264
224 224 224 224 224 224 225 227 231 235 238 242 243 247 252 249 249 250 254 260 265 268 271 277 280 283 290 296 304 307 301 297 294 291 282 276 275 272 270 264 262 260 262 266
226 224 223 223 223 223 226 227 230 235 238 242 244 242 250 248 245 246 252 257 261 263 267 272 275 278 286 291 297 298 297 295 295 291 282 273 274 276 273 270 267 266 265 268
223 222 222 223 222 223 226 227 230 234 238 241 244 244 245 248 244 246 250 254 259 262 265 269 273 278 285 285 291 293 291 292 296 293 289 279 275 273 270 269 269 270 271 272
223 222 223 223 223 224 225 226 229 232 236 241 244 244 243 246 245 247 251 252 257 259 263 267 272 280 285 283 286 289 287 289 291 290 291 286 276 271 269 267 266 269 273 276
223 224 224 224 224 226 226 227 228 230 236 241 244 243 245 245 247 249 250 251 254 256 260 263 266 274 280 283 285 287 285 284 286 289 293 288 278 271 267 265 265 268 273 277
221 224 223 223 223 224 224 224 226 230 232 234 243 243 243 245 248 250 250 249 249 252 255 257 261 267 271 277 282 286 286 283 282 286 290 285 274 269 266 267 269 274 278 280
219 222 221 221 222 222 223 223 225 226 229 232 241 244 243 244 248 249 248 247 248 249 252 255 258 261 266 271 276 283 285 280 277 280 282 282 276 269 265 268 274 279 281 282
218 221 221 221 221 222 222 223 225 226 229 228 236 245 242 243 245 247 247 247 245 246 249 252 255 259 262 266 272 277 279 275 272 274 276 277 275 270 267 269 274 279 281 280
216 217 220 221 221 222 222 224 225 228 230 228 227 244 245 243 244 244 246 246 243 243 248 251 255 257 260 265 270 274 273 272 271 271 269 273 273 270 269 271 275 277 277 278
214 215 217 220 221 221 222 222 223 225 229 229 227 238 247 244 243 243 245 246 244 245 248 252 257 259 259 263 268 270 269 269 270 270 268 270 271 268 269 273 275 276 276 276
213 214 214 219 224 224 223 224 224 225 227 231 229 234 246 243 242 243 244 245 244 245 249 253 256 258 258 260 265 267 267 267 267 267 265 267 269 269 270 273 275 276 276 276
211 212 212 215 220 222 222 223 224 225 226 230 234 235 242 242 242 242 243 243 242 244 249 251 252 254 255 258 263 266 266 267 268 268 267 269 269 270 272 274 275 277 281 280
210 211 212 216 219 219 220 221 223 224 225 229 233 237 239 241 240 241 241 241 240 241 245 247 249 252 254 259 262 263 264 266 268 268 269 271 271 270 273 273 273 275 278 279
209 210 211 214 217 219 221 221 223 225 227 230 234 237 238 238 236 236 237 238 237 239 242 245 248 251 256 263 266 264 261 263 266 268 271 272 273 271 270 271 274 273 275 278
209 209 211 214 217 219 222 222 223 226 228 230 233 236 237 235 232 231 232 233 235 237 240 244 247 254 260 266 271 265 263 264 267 269 271 272 272 272 271 271 273 273 275 278
208 209 210 214 218 222 224 224 224 227 230 231 233 235 233 232 231 231 232 234 237 240 242 245 250 256 261 264 268 266 266 266 267 269 272 272 272 273 273 271 272 274 275 278
209 210 213 214 217 224 224 224 224 226 229 229 231 232 231 230 230 231 233 236 238 241 244 247 251 255 258 261 264 265 266 266 267 269 270 272 273 274 274 272 274 277 278 281
211 212 214 216 218 223 223 223 223 225 226 227 229 230 229 228 229 230 233 236 238 241 243 246 250 254 255 257 259 264 266 268 270 271 270 270 271 272 273 274 276 278 280 282
213 216 217 217 219 223 220 221 222 223 225 226 228 228 229 230 230 230 232 235 238 240 242 246 251 253 254 255 259 265 267 268 270 271 272 271 271 271 274 276 277 279 281 283
215 215 216 216 218 220 220 222 222 223 225 227 228 227 228 229 229 230 232 235 238 241 243 246 248 251 253 255 261 264 266 268 270 271 270 271 271 271 272 274 278 280 281 283
216 217 218 219 219 220 220 221 223 224 226 227 228 227 228 228 228 229 232 235 238 240 242 245 247 250 253 256 259 262 264 266 268 268 267 268 269 270 271 274 278 280 281 282
216 216 217 219 220 221 221 222 223 224 226 228 228 228 229 228 227 231 233 235 238 239 241 244 246 251 254 256 259 262 262 261 264 266 267 269 271 273 274 276 278 280 281 281
215 215 217 219 219 220 221 223 224 225 228 229 229 228 228 228 229 232 234 235 235 237 241 245 248 253 258 259 260 261 261 262 263 265 268 270 273 274 275 277 278 280 282 282
Height
5876 5882 5885 5890 5893 5896 5899 5902 5904 5906 5908 5911 5913 5914 5915 5916 5916 5917 5917 5917 5916 5916 5915 5915 5914 5914 5913 5912 5911 5911 5910 5909 5909 5908 5908 5908 5908 5909 5909 5909 5909 5909 5909 5909
5872 5876 5881 5884 5887 5891 5895 5898 5900 5903 5905 5908 5910 5912 5913 5914 5915 5915 5915 5915 5915 5915 5914 5914 5913 5912 5912 5911 5910 5909 5909 5908 5907 5907 5907 5907 5907 5907 5907 5907 5908 5908 5908 5908
5867 5872 5875 5879 5883 5887 5891 5894 5896 5899 5902 5904 5907 5909 5910 5911 5912 5913 5913 5914 5914 5913 5913 5913 5912 5911 5911 5910 5909 5908 5907 5906 5906 5906 5906 5905 5905 5905 5905 5906 5906 5906 5906 5906
5859 5864 5869 5874 5878 5882 5886 5889 5892 5895 5898 5900 5904 5907 5907 5908 5909 5910 5911 5912 5912 5912 5911 5911 5911 5910 5909 5909 5908 5907 5906 5905 5905 5905 5904 5904 5904 5903 5903 5903 5904 5904 5904 5905
5853 5859 5863 5868 5873 5878 5881 5884 5888 5891 5894 5897 5899 5903 5906 5905 5906 5908 5909 5909 5910 5910 5910 5909 5909 5908 5908 5907 5906 5905 5905 5904 5904 5903 5903 5902 5902 5901 5901 5901 5902 5902 5902 5903
5846 5852 5857 5862 5867 5871 5875 5880 5883 5886 5890 5892 5895 5899 5901 5901 5903 5905 5906 5906 5907 5907 5907 5907 5907 5906 5906 5905 5904 5904 5903 5902 5902 5901 5900 5900 5899 5899 5899 5899 5899 5899 5900 5900
5841 5846 5851 5856 5861 5865 5870 5876 5880 5882 5885 5888 5890 5893 5897 5898 5900 5901 5903 5903 5904 5904 5905 5905 5904 5904 5903 5902 5902 5901 5901 5900 5899 5899 5898 5897 5896 5896 5896 5896 5897 5897 5898 5898
5836 5841 5846 5851 5856 5860 5866 5871 5876 5880 5883 5885 5885 5888 5893 5894 5895 5897 5899 5900 5900 5901 5902 5902 5902 5901 5901 5900 5900 5899 5898 5897 5897 5896 5895 5895 5894 5894 5894 5894 5894 5895 5895 5896
5830 5836 5840 5845 5850 5855 5860 5864 5870 5874 5877 5881 5882 5884 5887 5889 5891 5893 5894 5895 5896 5897 5898 5898 5898 5898 5898 5898 5897 5896 5896 5895 5894 5893 5893 5892 5891 5891 5892 5892 5892 5893 5893 5893
5824 5829 5834 5839 5844 5849 5854 5859 5863 5868 5872 5876 5878 5880 5883 5884 5887 5888 5890 5891 5892 5893 5894 5895 5895 5895 5895 5895 5894 5893 5893 5892 5891 5891 5890 5890 5889 5889 5889 5890 5890 5890 5890 5890
5819 5825 5829 5834 5839 5844 5849 5854 5858 5863 5867 5873 5876 5879 5878 5880 5882 5884 5885 5887 5888 5889 5890 5890 5891 5891 5891 5891 5891 5890 5889 5889 5889 5888 5888 5887 5887 5887 5887 5887 5887 5887 5887 5887
5813 5820 5824 5829 5834 5838 5843 5848 5853 5858 5862 5866 5872 5876 5872 5876 5878 5880 5881 5882 5884 5885 5886 5886 5887 5887 5888 5888 5888 5887 5886 5886 5886 5886 5885 5885 5885 5885 5884 5884 5884 5884 5884 5884
5808 5814 5819 5824 5829 5833 5837 5842 5847 5852 5856 5861 5867 5871 5868 5871 5873 5875 5876 5878 5879 5881 5882 5883 5883 5883 5884 5884 5884 5884 5883 5883 5882 5882 5882 5882 5881 5881 5881 5881 5881 5881 5880 5880
5803 5809 5816 5821 5824 5828 5833 5837 5842 5847 5851 5856 5861 5864 5863 5866 5868 5870 5872 5873 5875 5876 5877 5878 5879 5879 5880 5880 5880 5880 5880 5879 5879 5879 5879 5878 5878 5878 5877 5877 5877 5877 5876 5876
5798 5804 5809 5813 5817 5823 5828 5832 5836 5841 5846 5851 5854 5857 5859 5861 5863 5865 5867 5869 5870 5872 5873 5874 5875 5875 5876 5876 5876 5876 5876 5876 5876 5876 5875 5875 5874 5873 5873 5873 5873 5873 5872 5872
5793 5799 5804 5808 5813 5818 5822 5827 5831 5836 5840 5845 5848 5851 5853 5855 5858 5860 5862 5864 5865 5867 5868 5870 5870 5871 5872 5872 5872 5872 5872 5872 5872 5872 5871 5871 5869 5869 5869 5869 5869 5869 5868 5868
5789 5794 5800 5805 5808 5813 5817 5822 5826 5831 5835 5839 5843 5846 5848 5850 5852 5855 5856 5858 5860 5862 5864 5865 5866 5867 5867 5868 5867 5867 5867 5867 5867 5867 5867 5866 5866 5865 5865 5864 5864 5863 5864 5864
5785 5790 5795 5800 5804 5809 5815 5817 5821 5826 5830 5833 5836 5839 5842 5845 5847 5849 5851 5854 5856 5858 5859 5861 5862 5863 5863 5863 5863 5862 5862 5863 5863 5863 5863 5862 5862 5861 5861 5860 5860 5860 5860 5859
5780 5785 5791 5796 5800 5804 5808 5812 5816 5820 5824 5828 5831 5834 5837 5839 5842 5845 5847 5849 5851 5853 5855 5856 5857 5858 5859 5859 5859 5858 5858 5858 5859 5858 5858 5858 5857 5857 5857 5856 5856 5856 5855 5855
5775 5781 5786 5791 5796 5800 5804 5808 5811 5817 5819 5822 5825 5828 5831 5834 5838 5840 5842 5844 5846 5848 5850 5851 5852 5853 5854 5855 5855 5855 5855 5854 5854 5854 5854 5853 5853 5853 5852 5852 5852 5852 5851 5850
5771 5775 5780 5785 5790 5795 5798 5802 5807 5812 5815 5817 5820 5823 5826 5829 5832 5835 5837 5839 5841 5843 5845 5846 5847 5848 5849 5850 5850 5850 5850 5850 5849 5849 5849 5848 5848 5848 5848 5848 5847 5847 5846 5845
5766 5770 5775 5780 5786 5791 5793 5797 5801 5805 5808 5811 5814 5817 5820 5823 5826 5829 5831 5834 5836 5838 5840 5841 5842 5843 5844 5844 5845 5845 5845 5844 5844 5844 5843 5843 5843 5844 5843 5843 5843 5842 5841 5840
5760 5765 5769 5775 5781 5784 5788 5792 5795 5799 5802 5805 5808 5812 5814 5817 5820 5823 5826 5828 5831 5833 5834 5836 5837 5838 5839 5839 5840 5840 5840 5839 5839 5838 5838 5838 5838 5838 5838 5838 5837 5836 5835 5834
5754 5759 5764 5769 5774 5778 5782 5786 5789 5793 5796 5799 5802 5806 5809 5812 5815 5818 5820 5823 5825 5827 5829 5830 5832 5833 5833 5834 5834 5834 5834 5834 5834 5834 5833 5834 5833 5833 5833 5833 5832 5831 5830 5829
5749 5754 5758 5763 5768 5772 5776 5780 5784 5787 5790 5793 5796 5799 5803 5806 5809 5812 5814 5817 5819 5821 5823 5825 5826 5827 5828 5828 5828 5829 5828 5828 5829 5829 5829 5829 5828 5828 5828 5827 5826 5825 5824 5823
5743 5748 5753 5757 5762 5766 5770 5774 5777 5781 5784 5787 5790 5793 5797 5800 5803 5806 5808 5811 5813 5816 5818 5819 5820 5821 5822 5822 5823 5823 5823 5823 5823 5823 5823 5823 5823 5823 5822 5822 5821 5819 5818 5817